Wind_Speed
15 14 13 12 11 7 3 2 0 1 0 4 3 2 4 4 5 7 10 8 5 4 4 7 7 5 5 7 9 7 6 4 3 2 5 7 8 9 9 12 13 11 10 11 12 15 16 16 17 18 18 19 22 22 22 22 22 23 22 21 23 23 22 22 21 21 20 19 19 18 19 18 16 16 15 14 14 13 12 12 11 10 10 10 10 9 8 7 7 7 7 7 8 8 9 9 9
16 15 13 11 7 2 0 1 1 2 2 5 4 3 4 4 6 7 9 6 5 6 8 10 10 10 9 10 8 5 7 7 3 4 7 11 12 9 9 11 12 12 11 12 13 15 15 16 17 17 18 19 20 21 21 21 21 22 21 20 21 21 21 21 20 20 20 19 18 18 18 17 16 15 14 13 13 12 12 11 11 10 10 10 9 8 8 7 7 6 6 7 8 8 9 9 8
18 16 14 9 3 1 0 1 1 2 4 6 4 3 3 5 7 7 7 9 11 12 11 10 9 7 5 7 4 4 5 6 8 8 8 11 11 8 9 10 12 13 13 14 14 15 15 17 18 18 18 19 20 20 21 21 20 20 20 20 19 20 20 20 20 19 19 18 18 17 17 16 15 14 14 13 12 11 11 10 10 10 10 9 9 8 7 6 6 6 6 7 7 8 8 8 8
18 17 13 5 1 0 1 1 1 1 4 4 3 3 3 6 9 9 10 12 12 10 8 6 6 5 4 8 6 5 7 6 8 8 8 9 10 12 11 11 12 12 14 15 15 17 17 18 19 19 19 19 21 21 20 20 19 19 18 19 19 20 19 19 20 19 18 18 17 17 16 15 14 14 13 12 11 11 10 10 10 10 9 9 8 7 7 6 6 6 6 7 7 7 8 8 7
18 15 8 1 1 1 1 1 1 2 4 2 3 4 4 8 10 11 11 9 7 6 7 5 5 4 6 8 3 4 7 7 7 7 9 10 12 15 13 13 13 12 14 16 16 17 18 18 19 20 20 21 22 21 20 21 19 18 18 19 19 20 20 19 19 18 18 18 17 16 16 15 13 12 12 10 10 9 9 9 9 9 9 8 7 7 6 6 6 6 6 7 7 7 7 7 7
16 11 3 2 1 0 1 2 2 3 4 1 2 4 6 9 10 12 11 8 6 6 7 6 7 7 6 6 4 5 5 5 7 8 11 13 14 15 14 15 14 13 14 15 16 16 18 19 20 20 20 21 21 21 21 21 20 19 19 20 21 20 20 19 18 17 16 16 15 15 15 14 12 11 10 10 9 8 8 8 8 8 8 8 7 6 6 6 7 7 7 7 7 7 7 7 5
13 6 1 1 1 1 0 4 3 3 3 2 2 5 8 9 10 12 11 8 7 6 6 8 10 10 7 5 5 5 2 4 7 9 12 15 16 15 15 16 16 15 14 15 16 15 17 18 19 19 20 21 20 20 20 20 20 21 22 21 21 20 19 18 17 16 15 15 14 14 14 12 12 10 9 9 8 8 8 8 8 8 8 7 6 6 6 7 7 7 7 7 7 7 7 7 5
9 3 0 1 0 0 1 4 3 2 3 3 3 7 9 10 9 9 9 6 6 6 8 10 9 9 7 4 5 5 4 6 8 11 15 16 16 16 15 16 17 16 16 17 16 15 17 18 18 18 19 20 19 19 20 20 20 21 22 21 21 20 19 17 16 15 14 14 14 13 13 12 11 10 9 8 8 7 7 8 8 8 8 7 6 7 7 6 6 6 6 7 7 7 7 6 6
4 0 1 1 0 2 3 3 2 2 3 5 6 8 9 9 7 7 9 7 7 8 8 6 4 6 8 7 7 5 6 8 11 15 16 16 15 15 15 15 16 17 17 17 16 17 18 18 19 19 19 19 19 19 19 20 20 19 19 20 20 19 18 17 15 15 14 13 13 13 12 11 10 9 8 7 7 7 7 7 7 7 7 7 6 5 4 4 4 4 5 6 7 7 6 6 5
2 1 1 1 1 3 3 2 1 2 3 5 6 9 9 7 7 7 9 9 9 8 6 5 4 9 11 9 8 5 8 12 14 16 16 16 15 14 14 15 15 16 17 16 16 17 18 18 18 19 19 18 18 19 19 19 18 17 17 17 17 17 16 15 15 14 13 13 12 12 11 10 9 8 8 7 7 7 7 7 7 7 6 4 3 3 2 2 2 3 4 4 5 6 5 5 5
2 1 1 1 2 2 3 2 2 2 4 5 6 8 7 7 9 8 9 10 8 8 9 8 9 13 12 9 5 6 11 14 15 16 16 15 14 14 14 14 14 15 16 16 16 16 17 18 18 18 18 17 17 17 17 17 16 15 15 16 15 14 14 13 13 13 12 12 11 11 11 10 9 8 8 7 7 7 7 7 7 6 4 2 1 2 2 1 2 3 3 3 3 4 5 5 5
1 2 1 1 2 1 2 4 3 4 4 5 6 7 6 8 9 9 11 10 8 10 8 5 9 11 11 8 4 8 13 14 15 16 16 15 15 14 14 14 14 14 16 16 15 15 17 19 18 18 17 17 16 16 16 15 15 14 14 14 13 13 12 12 12 11 11 11 11 10 10 9 9 8 7 7 7 7 6 6 6 3 2 1 2 2 1 1 2 2 2 3 3 4 5 6 7
1 2 1 1 1 2 4 4 4 4 4 5 6 6 7 7 8 10 11 11 10 9 6 6 10 8 8 9 6 9 13 14 16 16 16 15 15 14 14 15 15 15 16 16 16 16 17 18 17 17 17 16 16 15 15 15 14 14 13 13 12 12 12 12 11 11 11 10 10 10 9 8 8 7 7 7 6 6 5 5 4 1 1 3 4 5 4 4 5 4 4 5 5 6 6 7 8
3 1 1 2 1 3 4 4 5 5 4 5 6 7 7 5 6 8 10 12 8 6 9 10 10 8 9 9 7 9 12 16 17 16 16 15 14 14 14 15 15 16 16 16 16 16 16 16 16 17 17 16 16 15 14 14 14 14 13 13 12 12 12 12 11 10 10 9 9 9 8 8 7 7 6 6 5 5 4 4 3 1 3 5 6 7 7 6 7 7 6 6 7 7 7 7 8
3 1 1 2 3 4 3 2 5 5 4 7 7 9 7 4 7 7 5 7 6 8 11 9 6 4 8 10 8 11 15 19 18 16 16 15 15 15 15 15 15 16 16 16 16 16 15 15 15 16 16 16 15 14 14 14 13 13 13 12 12 12 11 11 10 9 9 9 8 8 8 7 6 6 5 5 4 4 3 2 2 2 4 6 7 8 8 7 8 8 8 8 8 8 7 7 8
3 1 2 2 4 5 4 3 5 4 4 8 9 10 8 6 8 4 2 4 8 11 7 7 3 1 8 9 9 17 20 21 19 17 17 16 16 15 15 14 13 14 15 16 16 16 15 14 14 14 14 14 14 13 13 13 12 12 12 12 11 11 11 11 10 9 8 8 7 7 7 6 5 5 4 4 3 3 2 2 1 2 3 5 7 7 8 9 10 9 8 8 8 8 7 8 8
2 2 1 2 4 5 6 7 6 4 6 10 11 11 9 9 6 2 5 8 12 12 5 6 2 1 9 9 14 22 22 21 19 18 17 16 16 15 14 13 13 13 13 14 14 15 15 14 14 13 13 13 13 13 12 12 11 11 11 11 11 10 10 10 9 8 8 7 7 7 6 6 5 4 4 4 3 2 2 2 1 1 2 4 8 8 8 9 10 9 9 9 9 9 8 8 8
3 2 2 2 4 6 8 11 8 5 9 12 12 13 11 11 8 5 8 10 10 9 6 6 5 6 11 14 21 23 21 21 19 19 18 16 16 16 15 15 14 14 13 13 13 14 14 13 13 13 13 13 13 13 12 11 11 11 10 10 10 10 9 9 8 8 7 7 6 6 6 5 5 4 4 4 3 3 3 3 2 1 1 3 8 9 8 7 10 10 10 9 9 9 9 8 8
4 1 2 3 5 6 8 12 10 6 10 13 12 13 11 11 11 8 8 10 10 8 7 8 9 11 13 19 23 22 22 21 19 18 17 16 17 17 17 16 16 16 15 14 14 14 13 13 14 14 13 14 14 13 12 12 11 11 10 10 9 9 9 8 8 7 7 7 6 6 6 5 5 5 4 4 4 4 5 5 4 3 1 2 6 9 9 8 10 11 10 10 9 9 9 8 9
4 2 4 4 6 5 6 12 11 8 12 15 13 12 11 11 11 8 9 11 10 9 9 10 12 14 16 19 22 22 22 20 19 18 17 17 16 17 18 17 18 18 17 15 15 14 14 14 14 14 14 14 14 13 12 12 11 10 10 9 9 9 9 8 8 7 7 7 6 6 5 5 5 5 5 5 5 5 6 6 6 5 4 3 5 7 9 10 10 10 10 10 9 7 7 7 8
2 4 6 2 5 6 8 13 12 9 13 15 13 13 11 11 10 8 12 12 9 10 11 12 14 17 19 20 21 23 22 20 20 18 18 18 17 16 16 17 17 17 17 16 15 15 15 14 14 15 15 14 14 13 12 12 11 10 10 9 9 9 8 8 7 7 7 7 6 6 6 5 5 5 5 6 6 6 7 7 7 7 6 6 6 6 8 9 9 9 10 9 8 7 6 6 7
2 5 5 2 7 6 9 13 12 12 13 13 14 14 12 11 9 10 15 12 6 8 12 13 15 17 20 21 21 21 21 20 20 19 19 19 18 17 16 17 16 16 15 15 16 15 15 15 15 15 14 15 14 12 12 12 11 10 10 10 9 9 8 8 7 7 7 7 7 7 6 6 6 6 7 7 7 8 8 8 8 8 8 8 8 7 8 8 8 8 8 8 7 6 6 7 7
4 5 3 4 8 6 8 13 13 14 15 14 14 12 12 13 9 11 16 7 3 5 13 15 16 18 21 22 21 20 19 19 21 21 20 20 20 18 17 17 16 16 16 16 16 15 15 14 14 14 14 15 15 13 12 12 12 11 11 10 10 9 9 9 8 8 8 8 8 7 7 7 8 8 8 8 8 8 9 9 9 9 9 8 9 9 9 9 8 7 7 8 8 7 7 8 8
5 5 2 4 7 7 10 14 15 16 17 15 13 12 15 15 9 11 14 3 4 7 14 15 18 20 21 20 19 19 20 21 21 21 20 19 20 19 16 16 16 16 16 16 16 15 15 15 14 14 14 15 15 14 13 13 12 12 12 11 11 10 10 10 9 9 9 9 9 9 9 9 9 10 9 9 9 8 9 9 9 9 9 9 10 10 10 9 8 8 8 8 8 8 9 9 9
7 7 2 2 5 8 12 14 16 16 12 12 13 12 14 11 8 12 11 0 3 12 15 16 18 20 20 19 19 18 18 20 20 20 18 17 17 17 16 15 15 15 16 17 16 16 16 15 15 15 14 15 15 15 14 14 14 13 13 12 11 11 10 11 10 10 10 10 10 10 10 10 10 10 10 9 9 9 9 9 9 9 9 10 10 10 9 9 8 8 8 7 8 9 9 10 10
6 5 2 3 6 9 13 14 16 14 9 12 15 11 10 8 8 10 7 4 9 14 16 17 18 19 18 17 18 18 17 18 20 20 18 16 16 17 16 15 15 16 16 16 16 16 16 16 16 16 15 14 14 14 14 14 14 14 13 13 12 11 11 11 11 12 12 11 11 12 11 11 11 11 10 9 10 10 10 10 10 10 10 10 9 9 9 7 6 7 8 8 10 10 8 9 10
2 3 1 4 7 9 13 15 15 12 11 15 15 10 9 9 7 7 6 8 13 15 16 17 17 18 17 16 16 16 17 19 20 19 18 17 17 17 17 16 16 16 16 16 17 16 17 17 17 17 16 15 14 14 13 13 13 13 12 12 12 12 12 12 12 11 11 11 11 12 11 11 11 11 11 11 11 12 12 11 11 11 10 9 7 8 8 8 7 7 9 10 10 9 7 8 9
5 7 7 4 8 9 11 15 15 11 9 12 12 10 8 8 6 5 9 12 14 16 17 17 17 15 15 15 14 13 15 18 20 19 19 19 17 17 17 18 18 17 17 19 18 18 18 18 18 17 17 15 15 15 14 13 13 12 11 11 11 11 12 12 11 10 9 10 11 12 12 11 11 11 12 12 12 13 12 11 11 11 10 8 7 8 9 11 10 9 10 9 7 7 7 7 7
7 9 8 7 9 8 9 12 15 12 9 12 13 9 6 9 7 6 13 13 13 15 16 16 16 14 13 14 12 11 14 17 18 18 19 19 17 17 18 19 19 18 18 19 20 20 19 19 18 18 18 17 16 16 15 14 13 12 12 11 11 11 11 11 10 9 9 10 11 12 12 11 11 12 13 13 13 13 12 11 10 10 9 8 8 10 11 11 11 9 8 7 5 6 6 6 6
6 6 7 9 7 6 7 8 13 10 9 16 14 4 7 12 8 9 14 15 15 15 14 15 13 12 12 12 11 11 13 15 17 18 17 17 16 17 18 18 20 18 17 18 21 22 20 19 20 19 19 18 17 17 15 14 13 13 12 12 11 11 11 11 11 11 11 11 12 12 12 12 12 13 13 13 13 13 12 10 9 10 11 10 10 11 10 9 8 7 6 5 5 6 6 6 6
5 6 5 7 5 7 7 7 13 10 7 16 14 6 6 10 9 11 14 16 17 16 15 15 13 12 12 11 12 11 13 15 17 18 17 17 17 17 18 18 20 19 17 19 23 24 23 23 23 22 22 21 18 17 16 15 15 14 13 13 12 11 11 12 13 14 13 13 12 11 11 11 12 13 13 13 13 12 11 10 9 11 12 10 10 9 8 7 6 5 5 5 6 5 6 6 6
5 4 4 5 4 7 7 7 13 10 8 13 12 6 3 6 11 13 14 16 17 15 15 16 14 14 13 12 12 11 12 16 18 18 18 19 18 17 18 19 20 21 21 23 24 24 23 24 26 25 25 24 22 19 17 16 16 15 16 17 13 10 11 13 14 15 14 13 13 12 11 11 12 12 12 12 13 11 9 8 8 9 8 7 8 7 6 6 5 6 5 5 6 6 6 6 6
3 3 5 6 5 7 7 7 10 8 10 13 11 6 1 3 11 15 15 17 17 15 14 15 15 14 14 12 11 11 11 13 16 19 20 20 19 19 19 19 20 22 24 25 24 25 24 24 26 25 25 26 25 24 20 18 18 18 19 18 15 11 12 14 14 14 13 13 13 12 12 12 12 13 13 13 13 10 7 6 7 7 6 6 6 5 5 5 5 6 5 6 7 7 6 6 7
4 2 3 5 7 9 8 8 9 9 13 15 12 9 3 2 10 15 16 18 17 15 15 15 14 13 12 11 11 11 11 12 14 18 21 21 20 20 20 19 21 22 24 24 24 26 25 24 25 25 25 26 25 26 24 21 21 21 19 18 17 14 13 14 15 14 14 13 12 11 12 12 12 13 13 12 11 9 6 5 6 6 5 4 5 5 5 5 5 6 6 7 6 6 6 7 8
9 7 5 4 6 10 10 8 10 13 14 15 14 13 9 4 10 14 15 18 17 15 15 15 15 14 13 12 11 12 12 13 14 18 21 21 20 20 20 19 20 21 22 22 24 26 25 24 25 25 26 26 25 25 24 23 22 21 19 16 15 13 12 15 15 14 14 13 12 12 12 12 11 11 10 9 9 7 5 4 4 4 4 4 4 5 4 6 7 6 6 6 6 6 6 6 8
12 9 8 9 8 8 9 6 8 14 13 13 15 15 12 8 11 14 15 16 16 14 14 13 13 14 12 12 11 12 13 14 15 18 20 21 20 20 19 19 19 20 20 20 22 24 25 25 25 25 25 25 25 25 25 23 21 18 16 14 15 16 16 17 16 15 14 13 13 12 12 11 10 10 9 9 9 7 5 4 3 4 3 3 4 4 5 7 7 6 5 6 6 6 6 6 7
10 5 5 10 10 7 9 7 7 13 10 11 13 11 9 8 10 14 14 15 15 14 14 13 13 13 12 13 13 13 14 13 14 16 18 19 20 20 19 18 18 18 19 20 20 23 25 26 25 25 24 22 22 25 25 21 18 17 15 15 18 20 20 18 17 16 15 14 14 13 12 11 10 10 9 10 9 7 5 3 4 4 3 3 4 5 7 7 5 4 4 6 5 5 5 5 6
11 7 5 8 8 5 8 8 8 11 10 9 7 8 9 5 7 11 13 15 17 17 17 15 16 14 12 14 16 15 13 11 12 14 16 18 19 20 19 19 19 19 20 22 23 23 26 27 26 27 25 21 20 24 26 22 19 19 18 17 20 21 21 20 18 17 16 15 15 14 13 12 11 10 10 10 10 7 5 4 4 4 4 4 4 6 8 6 3 3 4 5 4 4 3 4 6
10 8 6 6 5 3 4 7 9 10 9 7 5 8 9 4 6 11 14 16 15 16 17 15 16 15 14 15 15 15 13 12 13 14 17 19 20 20 20 19 20 21 21 23 25 25 26 27 27 28 28 26 24 25 27 26 24 23 22 21 21 20 19 20 19 18 17 15 15 14 13 13 11 11 11 11 11 9 7 6 6 5 5 4 5 6 6 4 3 3 3 3 3 3 2 2 4
7 8 8 6 6 6 5 6 9 10 5 2 5 7 7 3 6 10 14 15 11 12 15 13 14 15 16 17 15 15 16 15 15 15 16 19 20 21 20 20 21 21 20 22 24 25 26 28 29 29 30 29 29 28 28 29 27 25 24 22 21 18 18 19 19 18 17 15 14 14 14 13 12 12 12 11 11 11 9 8 7 5 4 4 5 4 4 3 2 2 2 2 2 2 2 2 3
5 7 10 6 8 10 6 6 8 8 4 2 5 5 7 6 9 10 11 13 12 11 13 13 14 15 14 15 15 15 16 15 15 16 16 17 20 21 22 22 22 21 21 22 25 28 29 31 32 31 31 30 30 29 29 28 26 21 17 16 16 16 16 16 16 16 16 14 14 15 15 14 13 13 13 12 12 11 10 8 6 5 4 4 3 2 2 3 2 1 2 1 1 2 1 1 2
5 7 9 8 12 10 6 11 10 6 5 7 8 6 6 7 12 12 9 12 15 12 14 17 15 15 14 13 14 15 16 15 15 16 16 17 19 21 21 22 22 22 23 26 29 32 33 34 33 32 31 31 30 30 28 27 26 20 16 16 14 14 15 14 14 15 15 15 15 16 15 14 14 14 14 13 12 10 9 7 5 5 5 4 2 2 3 3 2 2 2 2 2 2 1 1 1
5 6 8 7 10 11 12 14 11 5 5 8 12 10 6 4 9 12 11 12 16 14 15 18 16 15 15 14 14 15 16 15 15 16 16 16 19 20 21 23 25 25 26 29 32 34 35 35 34 33 32 31 31 30 29 28 26 21 20 21 18 16 16 16 16 16 16 17 16 15 14 13 14 14 14 13 11 9 8 6 6 6 5 4 3 3 3 3 3 3 3 3 3 2 1 1 1
4 6 11 10 10 13 15 14 10 5 2 5 11 9 6 6 5 8 12 12 14 15 17 18 17 17 18 17 17 16 17 16 15 16 16 17 19 21 23 24 27 28 27 28 32 34 36 36 36 35 34 33 32 31 30 30 28 24 24 24 20 18 18 17 19 19 17 16 14 14 14 13 13 13 13 12 10 9 7 6 7 7 6 6 5 4 4 4 4 4 4 4 3 2 2 1 1
2 4 10 11 10 13 15 13 8 4 3 4 8 6 4 8 2 4 10 12 13 17 20 20 20 20 20 19 19 19 18 17 16 16 17 18 20 23 25 25 28 29 26 28 34 36 37 37 37 36 35 35 33 32 31 31 31 29 28 26 22 21 20 18 19 18 16 15 14 14 14 13 13 13 13 12 10 9 7 7 8 8 8 7 6 5 5 5 5 5 5 5 4 3 2 2 1
3 7 8 6 5 8 9 8 5 4 5 7 8 10 6 7 4 5 6 9 13 16 17 19 20 20 20 19 20 20 17 16 16 17 17 19 23 25 26 25 27 27 27 32 36 36 36 37 37 36 36 36 35 34 32 31 31 30 30 29 25 23 22 21 19 17 16 15 15 15 15 14 14 14 14 12 11 9 8 8 9 9 9 9 8 6 6 6 6 6 6 5 4 3 3 2 2
10 11 9 8 5 4 3 1 2 3 6 7 10 15 10 8 5 6 7 9 13 14 12 15 17 19 19 18 19 19 16 14 15 16 16 20 23 24 24 24 25 26 28 31 33 32 34 35 36 37 37 37 36 35 34 33 32 31 31 31 29 26 25 23 20 18 17 16 16 17 16 16 16 15 15 13 12 11 10 9 9 10 10 10 9 7 7 7 6 6 6 5 4 3 3 3 2
10 8 7 7 4 3 3 2 2 5 6 5 7 13 11 9 6 6 9 12 12 12 12 15 18 20 20 19 19 18 16 15 14 15 15 17 18 18 20 22 23 24 26 28 29 29 31 34 36 37 37 38 37 35 34 33 33 33 33 32 30 29 27 25 22 21 20 19 19 19 18 18 18 17 16 15 14 13 11 10 10 11 11 10 9 7 7 7 6 6 6 5 5 3 3 2 3
7 6 8 7 3 4 4 3 4 5 5 2 3 9 8 8 10 9 9 11 13 13 13 13 16 19 20 19 19 17 15 16 16 14 14 14 13 15 19 21 21 23 25 28 28 27 28 33 36 36 37 38 37 36 35 34 34 34 33 33 31 30 29 27 26 23 22 21 21 22 21 21 20 18 17 17 15 14 12 10 10 11 10 9 8 8 8 7 7 6 5 5 5 4 3 3 4
8 8 9 7 5 6 6 3 1 4 5 1 4 9 6 4 9 12 14 17 16 13 13 10 9 14 17 17 17 16 16 17 15 14 15 14 13 16 20 22 22 24 26 28 28 27 27 31 34 36 37 38 38 37 36 35 35 35 34 34 33 32 31 29 28 26 24 23 23 24 23 22 21 20 18 17 16 14 12 10 10 10 10 9 8 8 8 8 8 7 6 6 6 5 4 4 5
9 7 6 7 6 5 5 4 4 4 3 2 5 6 6 5 2 5 11 14 10 10 12 10 8 10 13 14 15 15 16 16 14 14 15 14 15 18 21 22 24 25 27 27 27 26 27 30 35 37 36 37 38 37 36 36 35 35 35 35 34 34 32 31 30 27 26 24 24 25 24 23 22 19 18 17 15 14 11 10 10 10 10 9 9 9 9 9 9 8 7 6 6 5 5 5 5
6 3 5 7 6 5 3 2 3 3 2 3 5 4 4 3 5 8 8 8 8 8 9 11 12 11 11 12 14 15 15 15 14 15 15 15 17 20 21 22 24 25 26 26 26 28 30 31 35 39 39 39 39 38 38 37 36 36 36 36 35 35 33 32 31 28 26 25 25 25 25 23 21 19 17 16 14 13 12 11 12 11 11 11 10 10 9 9 9 8 8 7 7 6 6 6 6
4 4 7 3 2 5 4 1 2 2 4 4 4 4 3 2 8 10 8 8 11 9 7 12 13 11 12 12 14 15 15 15 16 16 16 16 17 20 23 23 24 25 25 26 29 35 38 35 35 37 37 37 38 40 39 37 37 37 37 37 36 35 34 33 31 29 27 25 25 25 24 22 21 18 17 16 15 14 13 13 13 12 12 11 11 10 9 9 9 8 8 8 7 7 8 8 8
5 7 8 5 2 2 2 3 3 3 7 4 4 7 6 3 5 4 3 8 12 11 10 11 9 10 14 13 13 15 16 17 17 17 16 15 17 20 24 26 26 28 27 30 36 40 39 36 36 35 34 36 39 40 40 39 39 38 38 38 37 36 34 32 31 29 26 25 25 24 24 22 20 18 18 17 15 15 15 14 15 14 13 11 11 11 10 10 9 9 9 9 9 9 10 10 10
0 4 9 6 3 4 2 3 4 5 7 4 4 7 6 6 5 3 5 7 8 9 9 9 10 12 14 13 13 15 16 16 16 16 15 15 16 20 24 26 27 28 28 31 35 35 32 32 34 34 36 40 41 39 39 39 39 39 39 39 38 36 34 32 31 28 26 25 25 25 24 22 20 19 18 18 17 16 16 16 16 15 13 12 12 11 11 10 10 10 10 10 10 11 11 11 11
1 3 8 3 3 5 4 4 4 5 7 4 5 6 4 6 6 6 10 9 8 9 8 8 12 13 13 13 13 15 15 15 15 16 16 17 18 22 26 28 28 29 29 30 30 29 29 31 32 33 34 36 37 37 39 40 39 40 39 38 38 36 35 33 31 28 25 25 25 25 25 23 21 20 19 19 18 17 17 17 16 16 14 13 12 12 11 11 11 11 10 10 11 12 12 12 11
5 7 8 4 2 2 2 3 2 4 6 5 6 6 4 4 5 8 12 10 9 10 10 9 9 11 13 13 13 14 14 15 16 15 17 18 19 23 28 29 28 28 28 29 27 27 29 29 30 32 31 30 32 36 39 40 39 40 39 38 37 36 35 33 30 27 25 25 25 25 25 23 21 21 20 20 19 18 18 17 17 16 15 14 13 13 12 12 12 12 12 12 12 13 13 13 12
10 9 9 9 6 4 5 6 2 2 4 3 5 7 4 4 5 8 10 10 12 12 10 9 9 9 10 11 12 12 12 15 16 15 17 18 17 21 25 26 25 24 24 26 26 26 28 28 28 30 29 30 31 34 39 40 39 40 39 38 37 36 34 31 27 25 24 24 25 25 25 23 21 21 20 19 19 19 18 18 18 17 16 15 15 14 14 14 14 14 14 14 14 15 15 15 14
Wind_Direction
152 151 152 152 145 154 171 249 277 68 48 83 63 76 69 70 110 121 131 138 119 85 68 84 90 90 91 98 110 98 44 7 353 22 92 111 119 111 113 120 120 110 111 121 123 133 137 136 132 131 131 130 137 143 143 143 145 142 136 132 130 130 133 135 135 135 135 136 137 139 140 138 135 132 129 125 124 121 119 120 118 114 109 106 103 101 98 94 87 79 75 71 67 62 60 58 57
153 151 147 144 146 190 156 279 332 83 86 83 63 56 86 115 122 122 132 130 102 107 102 92 86 76 83 99 111 102 47 25 53 79 94 117 117 110 121 122 120 112 112 118 123 131 137 140 135 133 134 134 136 140 145 146 148 145 136 132 129 129 133 133 133 134 134 136 138 140 138 136 134 132 130 127 124 122 122 121 118 113 108 104 103 101 97 90 83 76 72 67 61 60 56 53 51
151 149 146 148 154 295 283 290 12 82 73 78 74 76 116 122 112 108 118 114 113 120 109 99 87 65 89 103 61 47 65 67 96 100 107 124 120 119 129 124 121 118 117 119 125 130 134 137 133 135 137 135 136 139 145 145 146 143 136 136 136 134 135 134 135 135 136 138 138 139 138 136 135 134 132 129 127 125 124 122 117 112 107 104 103 100 94 89 81 72 67 63 58 55 54 51 46
149 149 146 163 195 359 281 22 44 59 76 84 89 99 116 114 113 104 110 118 126 127 108 102 76 26 58 91 67 68 96 103 101 106 120 126 124 131 133 129 125 122 122 123 127 128 131 136 134 136 135 135 137 138 142 143 143 141 142 146 143 139 138 138 139 138 139 140 140 140 139 137 135 135 134 131 130 129 127 121 115 109 106 104 102 99 94 88 77 67 61 57 54 52 52 50 45
145 148 145 239 285 60 295 91 70 44 68 62 96 112 123 116 119 114 116 120 127 124 114 117 93 62 68 77 64 93 108 117 114 114 123 123 126 134 136 134 130 125 126 127 129 128 131 137 138 139 137 137 137 137 140 143 144 143 147 148 144 143 143 142 141 141 141 141 141 141 140 136 136 138 136 134 133 130 124 117 112 107 105 103 100 95 88 80 69 61 56 49 48 48 48 47 45
142 147 145 325 360 113 265 94 74 61 62 350 81 113 131 126 125 121 118 104 97 100 107 111 114 117 87 69 63 97 113 119 128 129 129 132 134 137 137 135 133 131 131 130 129 128 131 133 136 138 138 137 136 138 141 142 143 141 142 145 145 147 145 142 140 141 142 142 141 140 137 135 138 141 140 138 134 127 121 114 109 107 102 96 89 83 75 68 61 52 47 40 38 39 41 40 36
143 150 161 268 137 236 336 80 64 59 63 342 65 124 132 130 131 128 125 113 99 90 96 109 119 116 93 99 93 84 89 112 134 137 135 137 137 138 137 133 132 135 136 134 130 127 132 132 133 135 134 134 135 139 141 140 139 138 139 142 145 148 145 139 138 141 142 143 141 140 138 139 144 147 145 139 133 127 120 114 109 103 94 86 76 68 61 56 53 47 43 36 31 29 34 32 19
145 144 126 248 181 70 65 77 66 52 58 50 96 124 131 135 139 138 134 125 113 110 115 123 125 105 97 134 114 87 96 114 129 132 136 137 137 138 135 133 133 137 139 138 134 131 134 134 133 133 133 133 136 138 138 137 137 138 139 141 145 147 144 139 140 141 142 142 141 143 146 149 152 152 148 140 134 128 120 115 107 98 87 77 64 55 54 56 55 50 43 36 32 25 27 25 10
151 292 169 248 62 95 93 71 74 63 53 89 108 121 130 139 141 139 130 114 116 122 126 141 148 109 119 127 110 110 112 117 126 131 137 137 138 138 135 135 134 137 140 138 135 134 135 136 136 135 134 132 135 137 137 137 138 139 138 141 145 145 143 142 143 143 144 144 146 149 153 157 158 155 148 142 136 128 120 113 103 94 81 70 64 63 72 83 87 73 50 33 26 19 17 13 5
168 346 155 236 122 108 107 75 81 75 68 100 115 131 139 144 140 136 128 119 121 121 117 121 117 121 131 124 111 123 127 131 133 135 140 139 139 138 136 136 136 138 140 138 136 136 135 136 135 134 133 131 133 135 137 139 141 142 140 141 143 144 143 143 145 146 147 148 151 155 158 163 162 157 151 144 136 128 120 112 104 92 81 77 90 96 95 89 83 76 60 37 22 10 3 357 353
164 73 202 231 132 122 122 110 111 96 104 113 119 139 147 146 138 130 123 120 115 117 123 115 112 123 126 120 110 121 134 140 141 142 145 142 141 139 136 134 136 139 141 139 136 136 136 137 135 134 134 133 135 134 136 139 140 142 140 140 141 142 143 143 145 146 148 149 153 158 162 166 163 160 154 144 136 128 121 115 105 95 101 121 114 78 64 40 28 43 48 37 28 8 350 342 335
202 145 196 189 127 116 133 128 129 124 138 143 143 152 153 149 144 137 131 125 124 127 135 133 131 131 121 124 129 135 145 149 148 148 147 146 143 141 139 136 138 140 142 141 138 137 139 140 137 136 136 136 137 137 137 138 140 142 140 141 142 144 145 146 147 148 150 153 157 161 164 165 163 160 153 145 138 130 124 117 106 114 163 63 18 5 11 5 345 351 1 356 9 3 342 329 324
210 158 180 142 75 122 139 135 133 139 165 174 159 155 153 156 153 144 136 130 137 140 139 139 142 133 117 128 138 148 155 156 152 150 150 149 147 145 143 141 141 143 144 145 142 141 143 143 141 139 141 141 141 141 141 141 143 144 145 147 148 150 152 151 152 153 155 158 161 164 164 163 160 156 151 145 139 133 128 119 112 158 316 9 348 331 347 350 327 326 332 334 349 350 332 319 315
191 180 212 111 113 144 139 130 151 169 177 167 149 147 154 152 145 141 136 132 131 133 126 130 139 124 120 135 148 164 163 159 156 151 152 150 148 147 146 145 145 147 148 150 149 147 148 147 146 145 146 146 146 145 145 147 148 150 151 153 156 157 158 157 156 156 157 161 162 163 161 160 156 154 151 147 145 141 142 133 128 347 355 353 335 333 341 339 323 326 331 334 346 343 329 318 316
192 158 120 118 145 151 159 155 169 187 165 160 154 147 146 121 140 145 139 126 106 123 125 132 149 121 150 163 167 170 162 159 157 151 151 148 148 148 147 148 147 151 152 154 156 154 154 151 151 151 151 151 150 149 149 152 154 156 158 159 161 162 163 161 160 160 161 163 163 163 160 157 155 155 154 153 156 154 161 159 138 60 9 339 328 327 325 325 319 325 336 336 341 336 327 324 327
201 194 129 132 161 170 188 176 169 189 162 158 154 148 137 126 150 146 120 110 121 141 139 149 177 326 167 169 159 159 157 157 155 150 149 147 149 151 152 153 150 154 156 159 162 161 160 156 157 155 155 155 153 153 153 157 161 162 162 162 164 164 164 164 164 165 166 167 165 163 161 160 160 161 163 163 168 175 192 193 147 81 38 321 308 312 316 319 317 326 337 336 340 337 329 330 337
206 232 195 153 181 188 180 174 174 171 154 153 156 160 147 141 154 92 112 129 137 149 140 139 152 133 152 146 144 150 153 154 154 152 151 151 154 156 159 162 159 161 163 165 167 167 165 163 162 160 161 160 158 160 159 162 166 166 165 166 167 165 166 168 168 169 169 170 168 169 169 169 172 174 177 178 185 201 220 232 238 99 82 294 294 302 312 319 320 327 336 340 344 341 334 333 336
199 211 210 191 190 190 180 183 176 146 154 160 164 168 156 152 154 125 129 131 139 142 120 118 98 112 127 128 140 147 151 154 156 157 157 160 162 164 167 170 170 169 170 172 173 172 171 170 169 167 168 167 167 168 168 169 169 171 171 171 171 171 172 173 172 174 174 174 175 178 182 185 187 187 195 197 201 220 239 253 265 278 72 294 298 304 312 323 322 326 339 344 341 336 330 328 329
199 187 213 219 195 188 184 181 173 160 159 158 165 167 161 158 152 152 154 145 153 145 127 126 114 119 125 132 142 150 155 157 161 163 164 167 170 172 173 174 176 176 176 178 179 178 177 177 176 174 174 176 176 176 175 174 175 176 176 175 176 176 179 180 180 182 182 183 186 188 193 198 199 203 214 220 223 240 254 262 268 282 322 316 301 304 317 330 324 328 340 341 336 331 323 322 327
202 206 235 231 187 185 189 181 174 165 152 154 164 164 162 157 152 170 162 153 173 170 151 151 142 141 141 142 148 155 160 162 166 169 170 173 176 178 178 178 180 181 182 182 182 183 183 181 181 181 181 182 182 182 182 182 182 181 181 182 182 184 187 188 191 193 193 195 199 202 206 212 215 222 232 240 246 256 267 273 277 285 300 313 303 304 317 326 324 328 333 331 331 324 314 315 320
165 204 242 210 162 185 194 184 171 155 153 157 158 159 163 158 158 172 158 157 191 195 173 165 157 152 148 149 154 160 164 166 169 174 176 178 181 182 184 185 185 185 185 185 187 189 188 185 185 186 187 188 187 187 187 188 188 186 188 190 189 191 195 197 199 202 205 208 211 216 222 227 232 237 245 252 258 265 271 276 281 290 301 310 311 307 306 313 317 319 321 323 323 317 311 311 312
170 219 250 153 165 193 185 176 162 147 150 153 158 165 159 154 167 177 170 170 194 195 178 162 156 155 153 153 157 163 168 170 173 177 179 182 184 186 188 188 189 188 188 190 191 192 191 190 189 190 192 193 193 192 191 193 194 193 194 195 196 199 201 205 207 209 213 215 220 226 233 240 245 249 254 257 263 269 273 278 284 292 302 308 312 311 303 304 306 306 311 313 310 310 308 305 305
225 229 248 181 186 197 168 163 157 146 151 162 168 162 146 157 177 182 183 193 330 178 165 155 152 155 154 154 159 167 172 175 177 180 183 185 186 190 188 187 189 190 192 193 193 194 194 194 194 193 195 196 196 196 196 197 199 201 200 199 202 203 206 211 213 215 217 220 226 233 239 246 251 256 260 262 266 270 274 282 290 296 302 307 310 311 309 305 304 305 307 305 301 301 298 294 291
232 236 243 205 200 194 165 160 160 156 163 167 161 153 157 171 172 176 190 244 341 158 152 148 148 151 154 157 165 172 176 180 181 183 185 187 189 191 189 188 189 190 194 195 194 195 195 196 197 197 198 199 199 199 200 201 203 206 205 205 208 210 212 216 219 221 224 227 233 237 242 249 254 259 263 268 272 274 278 285 293 297 300 306 310 314 314 308 305 303 300 300 300 296 294 291 288
218 235 235 192 200 184 164 160 163 159 157 150 151 162 168 168 145 169 189 84 125 149 142 146 148 153 159 164 169 174 178 182 183 184 186 190 192 191 191 190 189 192 195 195 195 197 197 197 198 200 201 201 202 202 204 205 207 210 209 209 213 215 217 222 224 226 230 233 237 241 245 252 257 264 269 274 277 279 283 287 291 294 300 307 313 319 316 309 306 303 299 299 297 291 292 294 290
199 224 232 204 190 167 160 158 160 153 143 147 156 162 157 142 134 166 183 123 140 143 141 149 153 159 165 168 172 174 179 183 185 186 188 190 190 190 191 190 191 194 195 195 196 197 198 197 200 203 202 203 204 204 208 210 211 213 214 212 215 218 220 228 229 229 234 236 241 245 248 254 261 268 273 277 281 284 288 291 293 295 303 306 310 313 310 308 306 305 304 305 300 291 289 293 288
165 181 123 198 167 154 159 152 154 147 145 160 159 153 147 146 161 185 174 150 148 146 148 154 158 165 168 171 173 175 180 184 187 187 188 190 191 192 191 192 195 195 195 195 196 197 197 198 201 204 204 204 205 206 210 213 214 215 217 217 220 222 223 231 234 234 237 241 247 252 256 259 264 269 274 281 285 291 294 295 296 296 299 299 298 300 302 303 297 299 303 303 300 290 287 291 286
148 142 86 109 132 138 155 148 152 145 144 162 145 130 137 157 204 199 157 157 157 151 154 160 164 168 171 172 174 179 184 185 186 188 191 193 194 195 193 196 197 196 198 198 199 200 199 201 202 203 205 205 205 208 210 213 216 217 219 220 224 225 227 232 236 238 241 246 252 258 261 263 267 270 275 283 288 293 295 293 293 291 291 289 287 290 298 301 293 292 297 295 296 292 289 289 287
153 140 100 115 122 133 155 150 158 153 147 153 130 117 162 192 208 152 147 158 160 156 158 165 168 170 174 175 176 183 188 186 187 192 194 194 195 196 197 198 197 198 201 202 203 204 202 202 203 204 205 206 207 208 210 214 215 218 219 221 224 226 229 232 235 239 242 250 256 258 262 265 268 272 278 284 289 292 291 290 289 290 293 293 289 288 294 297 289 286 290 292 299 294 287 287 291
149 135 121 133 129 155 166 154 160 152 146 156 151 167 203 201 193 141 152 159 158 161 164 170 171 172 177 180 183 186 190 189 192 197 196 196 197 198 200 200 200 200 201 202 205 207 204 202 203 203 203 205 207 209 211 213 215 218 220 222 225 227 230 233 238 243 249 255 258 258 261 266 271 276 282 285 287 288 287 286 284 290 295 295 293 289 292 294 285 286 291 295 296 288 287 293 298
144 132 135 150 158 167 161 160 166 153 152 169 179 227 212 189 177 152 162 163 163 169 170 175 176 176 180 183 188 191 194 197 200 203 201 200 200 201 204 202 202 202 201 204 207 209 207 207 208 206 207 206 206 210 212 215 216 217 221 225 227 228 231 235 242 248 254 258 261 262 264 269 274 278 283 285 286 284 282 282 281 292 296 292 293 294 295 292 283 288 293 295 297 296 296 297 300
148 151 162 182 177 153 152 177 179 164 163 180 191 227 232 184 172 162 169 169 170 175 174 179 179 180 184 184 191 193 195 200 203 206 206 205 204 203 205 202 202 202 204 208 209 210 209 212 214 213 214 213 212 214 214 217 219 221 227 232 231 228 232 240 246 249 254 258 263 269 272 276 279 281 283 284 284 280 278 280 282 299 303 291 294 301 298 290 286 294 297 299 301 300 298 299 303
183 219 175 181 171 153 160 178 193 171 155 184 205 222 252 175 171 166 172 175 175 178 178 182 183 183 186 186 192 193 194 198 203 209 207 207 206 204 204 203 202 203 207 209 208 209 209 212 216 216 218 218 218 219 219 221 223 227 232 235 234 232 238 245 249 252 255 260 266 270 273 275 279 281 281 278 278 276 275 279 283 300 301 287 294 303 298 294 299 305 307 301 297 296 300 304 305
189 225 179 184 167 162 163 167 193 178 162 187 209 225 240 148 168 171 175 179 179 180 181 183 186 188 189 191 194 195 199 200 204 208 207 207 207 206 206 205 205 205 208 208 209 212 210 211 215 216 218 220 221 222 223 224 228 232 235 237 237 237 242 246 251 255 258 263 267 267 264 266 272 275 276 271 270 270 269 272 277 285 288 290 303 304 302 309 312 308 304 300 295 297 300 303 304
182 187 183 185 174 177 174 165 181 181 182 192 197 220 232 169 170 179 179 182 184 186 184 184 187 190 191 192 197 198 202 207 209 208 207 209 209 208 208 207 206 206 208 207 209 213 212 211 213 215 218 220 222 225 225 227 231 234 236 237 237 237 240 246 251 254 257 261 263 261 257 257 262 266 269 263 259 258 256 261 263 271 283 296 303 303 312 318 312 304 298 296 298 301 301 301 305
184 188 186 179 178 185 175 147 161 177 190 200 198 215 219 182 176 184 183 186 190 191 187 187 190 191 192 195 200 202 206 211 211 209 208 210 211 209 208 207 207 208 208 207 207 211 213 213 212 213 218 219 221 224 225 226 229 231 231 231 233 236 240 244 248 249 252 255 255 255 251 251 255 259 257 248 246 243 238 243 245 259 273 276 282 296 310 309 305 302 297 296 301 312 314 309 312
179 181 196 187 182 180 169 141 149 175 196 213 211 227 226 193 185 188 184 186 195 197 192 193 192 192 195 197 201 206 210 213 211 211 210 211 212 210 209 209 208 208 209 207 207 210 214 215 214 214 216 215 217 221 221 219 217 219 220 224 231 235 238 242 245 247 248 250 251 250 245 245 249 251 244 237 238 231 222 219 221 237 244 249 268 294 306 306 305 306 305 307 314 327 326 320 324
182 186 195 197 192 173 165 155 148 169 200 218 214 247 248 216 194 192 184 190 200 200 196 195 194 193 196 199 203 207 211 213 212 213 212 213 214 212 210 210 207 207 209 211 211 213 216 217 217 217 216 212 213 219 221 217 215 217 218 223 230 233 236 240 244 247 249 251 250 242 238 242 244 244 237 231 229 220 213 208 211 225 232 249 280 302 309 310 307 307 313 321 330 337 332 328 338
187 194 186 198 191 128 134 157 146 161 203 217 192 233 247 224 207 203 195 200 206 203 200 198 193 193 197 201 203 206 207 207 209 213 213 214 216 213 210 210 210 210 210 213 215 216 217 218 218 219 219 217 218 221 223 224 225 226 228 232 234 235 237 240 244 249 253 252 244 235 235 239 241 240 230 223 223 219 216 214 223 233 236 265 295 305 309 309 306 311 322 332 337 337 336 339 350
187 190 193 195 165 167 189 172 158 160 186 204 168 226 250 214 214 217 211 212 213 212 209 206 199 197 201 202 201 203 204 204 205 211 212 212 214 213 211 210 211 210 208 210 213 215 218 220 221 221 221 221 222 224 227 228 231 232 234 237 238 238 240 244 248 251 250 243 235 234 236 237 237 231 222 219 221 221 221 223 233 238 243 280 295 297 306 306 305 310 318 329 331 330 343 350 352
190 195 202 183 161 196 205 143 148 151 145 133 149 232 254 211 213 219 213 214 219 217 211 212 211 209 209 206 205 205 206 205 203 207 209 208 209 210 211 211 210 209 208 209 212 216 219 223 224 223 223 223 224 226 227 227 228 227 227 230 233 236 239 243 244 242 237 231 232 236 237 237 232 223 219 219 220 222 225 227 233 237 251 275 281 294 309 293 287 287 295 305 304 309 324 340 339
195 212 209 183 174 189 157 135 147 160 198 193 176 237 254 199 213 218 197 204 217 216 212 215 214 213 215 212 210 209 210 210 206 207 207 205 206 207 209 210 210 211 212 213 216 220 223 225 227 226 224 224 225 226 225 224 223 218 212 213 215 220 227 229 227 224 225 227 234 238 237 234 226 219 218 218 219 223 224 227 231 228 238 244 244 295 314 288 268 259 264 263 257 269 276 322 336
195 200 192 178 170 166 152 157 170 185 209 188 185 222 255 195 213 212 193 203 213 212 216 218 214 213 213 212 213 210 210 212 210 211 208 205 205 204 207 208 209 213 214 215 218 221 224 226 227 227 226 226 226 225 223 222 221 215 214 215 211 210 216 221 221 221 227 233 237 238 235 230 221 217 218 217 217 219 219 224 223 215 221 232 245 283 302 276 246 237 238 239 242 244 229 228 305
186 169 171 166 161 164 163 171 189 193 138 152 185 212 263 255 232 193 192 205 213 217 221 219 215 214 213 213 214 212 209 209 208 209 207 207 206 204 206 205 207 213 213 213 216 219 223 225 226 227 228 227 227 226 224 222 220 217 218 218 214 213 215 219 224 227 231 233 232 230 228 226 220 216 215 213 212 214 218 219 215 215 223 238 250 267 279 261 239 231 228 228 232 230 219 207 240
190 144 165 165 167 170 170 182 197 176 159 186 186 183 239 253 250 140 188 205 215 221 221 219 216 214 213 213 213 213 212 209 207 207 206 206 206 205 206 204 207 211 210 212 216 219 221 223 224 225 226 227 227 226 224 223 223 222 222 220 216 217 218 221 226 228 228 225 223 223 221 220 217 212 208 207 209 213 219 220 220 225 230 239 246 257 268 256 237 229 227 227 224 220 217 203 217
127 121 126 122 143 156 167 192 180 136 209 220 184 177 212 251 223 144 179 210 222 224 221 219 216 212 212 212 213 213 212 208 209 208 208 207 206 206 205 205 207 207 208 214 217 217 219 220 221 222 224 225 226 226 225 225 225 224 224 222 219 219 220 222 224 224 223 221 219 217 214 213 210 206 204 205 210 213 216 222 226 228 228 233 240 253 261 250 238 231 231 230 223 216 205 194 214
130 124 111 94 90 112 112 133 129 152 223 230 193 186 207 253 231 162 184 213 214 216 220 217 213 213 213 213 213 212 208 204 206 209 210 209 208 206 203 203 204 204 207 212 213 214 216 217 218 220 223 224 224 225 225 225 225 225 225 226 224 223 223 223 222 221 220 217 214 212 210 209 205 204 205 207 211 213 216 223 226 225 224 225 233 248 250 239 231 229 232 231 225 221 204 188 204
148 137 130 123 99 118 111 84 168 200 225 238 204 189 203 242 244 187 202 220 215 212 217 210 206 209 211 212 212 210 206 201 201 207 210 208 204 201 200 201 201 201 204 206 208 209 211 213 216 217 220 223 223 223 224 224 225 225 227 228 227 226 226 226 223 223 221 216 212 210 208 206 204 204 206 209 212 213 216 221 221 218 218 222 230 241 239 229 223 225 229 228 224 228 222 201 206
182 157 156 164 148 167 176 171 192 211 230 275 164 180 200 240 254 247 233 236 231 224 226 217 205 206 208 209 209 205 200 198 200 203 206 205 197 193 197 199 198 198 201 203 204 204 206 211 214 214 217 221 221 222 223 223 224 226 227 227 227 227 228 228 227 226 224 219 214 211 209 206 204 205 207 210 212 212 216 222 222 218 220 228 237 243 241 230 224 228 231 230 229 237 244 239 230
192 170 169 182 171 180 191 172 177 224 231 245 153 183 206 237 253 256 250 249 240 227 234 236 213 207 208 208 207 203 201 200 199 200 202 202 194 191 195 194 194 198 201 202 202 201 203 207 210 213 216 219 220 220 221 222 223 226 227 226 226 226 226 227 227 227 225 222 218 215 214 212 210 211 213 214 213 214 221 229 228 222 225 237 245 248 245 233 230 234 236 236 236 242 248 247 243
196 178 179 193 176 187 195 174 196 211 202 150 156 186 206 189 230 258 247 261 261 231 229 227 215 213 209 208 206 204 204 202 197 198 202 200 193 193 195 193 194 198 199 200 200 200 201 205 209 211 213 216 218 218 219 220 222 224 225 225 225 224 225 226 226 227 226 224 222 220 220 219 218 219 221 221 218 219 228 236 229 222 230 242 246 244 239 231 231 234 235 236 236 242 248 248 250
195 165 197 206 178 174 186 178 194 183 161 169 177 213 221 209 310 294 257 272 270 238 220 212 214 208 194 199 204 202 202 201 199 201 203 200 194 194 197 197 196 197 197 197 197 199 202 205 208 211 213 214 216 217 218 219 219 221 223 223 223 223 224 224 224 225 226 226 226 225 224 224 224 226 227 224 221 224 233 234 225 223 236 244 240 235 230 225 228 230 233 236 236 243 251 254 258
157 180 206 200 144 167 170 136 89 141 222 199 175 232 240 239 284 273 251 256 255 243 219 216 216 192 182 197 200 197 197 196 198 200 199 196 193 194 197 198 197 197 195 194 197 203 205 204 206 209 211 212 214 216 217 218 218 220 221 221 221 221 221 222 223 223 225 226 227 228 228 228 227 228 227 223 222 227 232 229 222 226 238 239 231 228 226 224 227 229 233 239 243 249 256 259 263
152 198 180 105 50 203 174 198 162 182 226 211 172 222 228 208 242 251 225 239 244 238 222 218 208 183 193 205 196 191 194 195 198 198 197 195 194 195 197 198 198 197 195 196 202 205 205 204 205 206 207 210 214 215 215 216 217 218 219 219 220 220 220 222 223 224 226 226 226 226 227 227 228 228 225 222 223 226 228 226 223 227 232 231 227 227 228 228 230 234 242 249 254 258 262 265 267
215 194 158 138 202 192 166 208 185 192 223 216 189 217 232 219 218 241 245 247 252 246 225 204 197 196 204 206 195 192 195 195 198 200 199 197 197 197 197 198 199 197 197 200 203 202 201 203 205 206 208 212 214 214 214 216 217 218 219 219 219 219 220 221 223 224 225 225 226 225 225 226 227 226 223 220 221 224 226 224 222 224 226 228 231 232 233 235 237 242 250 256 262 266 267 268 270
30 159 163 187 226 184 185 195 178 203 221 217 201 208 219 218 213 223 237 247 254 256 247 213 202 202 204 201 195 194 195 194 196 199 198 198 199 199 197 198 198 196 198 201 201 198 199 202 203 205 208 210 211 213 214 216 218 218 218 219 219 218 218 219 220 221 222 224 226 226 225 225 225 223 221 219 221 225 226 222 220 221 223 228 234 236 238 241 243 248 254 259 265 269 270 269 271
179 188 183 189 192 156 202 191 161 213 215 206 218 223 201 194 210 216 228 241 241 243 251 241 221 206 202 201 196 193 192 193 194 195 197 197 198 199 199 199 198 196 198 199 198 199 201 202 203 204 204 205 208 212 215 216 217 217 217 217 217 216 216 216 216 218 221 223 225 225 225 225 225 224 221 219 222 226 226 222 221 223 225 230 234 236 240 243 246 251 255 259 264 269 270 270 272
191 202 194 189 183 163 199 209 180 206 221 198 220 241 218 175 202 213 218 233 237 236 239 247 252 233 209 202 201 197 191 193 195 195 196 196 196 196 196 194 194 195 195 196 197 200 202 202 203 203 203 204 206 210 215 216 216 216 215 215 215 214 213 211 211 214 219 223 226 226 225 225 227 227 224 222 224 227 226 224 225 227 228 231 235 236 241 245 249 252 255 258 261 264 266 266 268
Height
772 773 774 775 775 777 778 778 790 790 789 805 806 805 805 797 797 800 804 802 802 803 796 795 795 797 800 804 809 811 813 813 814 818 825 821 816 818 817 817 817 816 816 816 816 816 817 818 819 820 821 822 824 825 826 827 829 830 831 832 833 834 836 838 838 839 840 841 842 843 844 844 845 846 847 848 849 850 850 851 852 852 852 851 852 852 853 854 855 855 855 856 856 857 857 857 857
772 774 774 776 776 778 781 778 794 798 795 809 807 805 805 796 799 803 804 802 803 801 795 796 797 799 800 801 804 808 813 812 810 812 815 815 816 818 817 819 818 817 817 816 817 817 818 819 820 821 823 824 824 826 827 827 829 830 831 832 833 835 837 838 839 840 841 842 843 844 845 845 846 847 848 849 850 851 852 853 853 853 853 853 853 854 855 856 856 856 857 857 857 858 858 857 857
773 774 774 777 776 777 781 781 797 804 804 813 809 803 800 801 804 803 800 799 799 796 795 797 799 802 803 806 807 810 816 812 808 810 813 815 816 818 819 819 819 819 818 818 818 818 819 821 822 823 824 825 826 827 828 829 830 831 832 834 835 837 838 839 840 841 842 843 844 844 845 846 847 848 849 850 851 852 853 854 854 854 854 854 855 855 856 857 857 857 857 858 858 858 858 858 858
773 775 775 776 779 781 785 791 799 803 808 813 810 803 799 803 803 801 799 797 796 794 797 799 804 804 803 812 811 811 816 813 810 810 813 815 816 818 819 819 820 820 820 820 819 819 821 822 824 825 826 827 827 828 829 830 832 833 834 836 837 838 839 840 841 842 843 844 844 845 846 847 848 849 850 851 853 854 855 855 855 855 855 855 856 857 858 858 858 858 858 858 858 859 859 859 858
773 775 776 775 783 787 789 796 799 802 808 808 807 804 799 801 801 801 799 797 795 795 798 800 808 806 803 811 810 813 816 814 812 811 813 816 817 819 820 821 821 821 822 822 822 822 823 824 826 827 829 829 829 830 831 833 834 835 836 837 838 840 840 841 842 843 844 844 845 846 846 847 848 850 852 853 854 855 856 856 856 856 856 857 858 858 859 859 859 859 859 859 859 859 860 859 858
774 776 776 775 781 784 790 798 801 803 803 801 803 803 798 798 799 800 799 798 795 795 797 799 806 807 809 812 808 812 813 813 814 813 814 817 819 820 821 822 822 823 823 823 824 824 825 826 827 829 830 831 832 832 833 835 836 837 838 839 840 841 841 842 843 844 844 845 846 847 847 848 850 852 853 855 856 856 856 857 857 857 858 859 859 860 860 860 860 860 860 860 860 860 861 860 859
773 777 778 781 783 784 794 802 803 806 800 796 800 800 798 798 797 798 800 801 800 798 798 800 800 806 815 813 812 813 811 813 813 814 816 817 820 821 822 823 824 825 824 825 825 826 827 827 828 830 831 832 833 834 835 836 837 838 839 840 841 842 843 843 844 845 845 846 847 847 848 849 851 853 855 856 856 857 857 858 858 859 860 861 861 861 861 861 861 861 861 860 861 861 861 861 859
773 778 780 786 792 791 799 802 802 804 799 794 795 796 797 797 795 797 800 802 804 802 801 802 798 808 817 811 816 816 812 815 814 816 817 818 821 822 823 824 825 826 827 827 827 828 829 829 830 831 831 833 834 835 836 837 839 839 840 841 842 843 843 844 845 845 846 847 847 848 849 851 853 855 856 856 857 858 858 859 859 860 861 862 862 862 862 861 861 860 860 860 860 861 861 861 860
773 777 782 789 795 797 801 804 803 801 798 795 795 796 796 795 795 797 801 802 802 803 805 803 799 810 818 813 818 816 812 816 816 818 818 820 822 822 824 825 827 827 828 829 829 830 830 831 831 832 833 834 836 836 838 839 840 840 842 842 843 844 844 845 846 846 847 847 848 850 851 853 854 856 857 857 858 858 859 860 860 862 862 863 862 861 860 860 860 860 860 860 860 861 861 861 861
774 777 784 791 795 802 806 807 805 801 799 796 796 796 795 795 795 798 801 803 802 804 805 800 801 810 815 817 819 815 814 817 817 819 820 821 822 823 825 826 828 828 829 830 830 831 832 833 833 834 835 836 837 838 839 840 841 841 842 843 844 845 845 846 846 847 848 849 850 852 853 854 855 856 857 857 858 859 860 861 861 862 863 862 860 860 860 860 861 860 860 860 860 860 861 861 861
780 781 784 793 799 806 807 807 807 802 798 795 796 794 793 794 796 799 800 804 803 805 805 802 808 811 813 819 819 816 816 817 818 820 821 822 823 824 825 827 829 829 830 831 832 832 833 834 834 836 836 837 838 839 840 840 841 842 843 844 845 845 846 847 847 849 849 850 852 853 854 855 856 856 857 858 859 859 860 861 862 862 861 859 859 860 860 860 860 860 860 860 860 860 860 860 860
784 786 785 796 802 804 804 807 807 803 800 798 799 794 791 793 797 801 802 805 804 806 805 803 808 808 815 822 819 817 816 818 819 820 822 823 824 825 826 827 829 830 831 832 833 833 834 835 836 837 837 839 839 840 841 841 842 842 844 844 845 846 847 847 848 849 850 851 852 853 855 855 856 857 857 858 859 860 861 862 862 861 859 860 860 860 860 860 859 860 860 860 860 860 860 860 860
782 785 786 797 801 801 803 805 806 806 805 799 798 793 790 795 799 799 800 804 804 808 806 801 802 804 816 821 817 817 816 819 819 821 823 823 825 826 827 828 830 831 832 833 834 834 835 836 837 838 839 840 841 841 842 842 843 843 844 845 846 847 847 848 849 850 851 852 853 854 855 856 857 857 858 859 860 861 861 862 862 861 860 861 861 860 860 860 860 860 860 860 860 860 860 859 859
776 778 782 798 802 801 802 805 806 807 806 797 794 792 791 795 797 796 798 804 805 805 802 798 798 806 816 820 820 818 815 818 820 822 823 824 826 826 828 829 831 832 833 834 834 835 836 837 838 839 840 841 842 842 843 844 844 845 845 846 847 848 848 849 850 851 852 853 854 855 855 856 857 858 858 859 860 861 862 863 862 862 862 862 860 860 861 860 860 860 861 860 860 860 859 858 858
771 773 780 797 802 801 802 803 803 805 802 794 792 791 793 795 794 797 797 803 806 798 798 799 798 806 814 816 819 814 813 818 819 821 823 825 826 827 829 830 831 832 834 835 835 836 836 838 838 839 841 841 842 843 844 844 845 846 846 847 848 849 849 850 851 852 852 854 854 855 856 856 857 858 859 859 860 861 862 862 863 864 864 862 860 860 860 860 860 861 861 860 860 859 858 858 857
766 770 783 797 801 802 802 800 802 804 798 791 790 789 797 797 792 798 795 796 803 797 797 802 800 803 807 809 810 809 812 817 819 821 823 825 826 828 829 830 832 833 834 835 835 836 837 838 839 840 841 842 843 843 844 845 845 846 847 848 849 850 850 851 852 852 853 854 855 855 856 857 857 858 859 859 860 861 861 862 863 865 865 862 860 860 861 860 860 861 860 859 859 859 858 857 857
764 772 787 797 800 799 797 797 800 799 793 790 790 789 799 802 794 795 791 792 801 801 800 801 799 799 802 804 805 808 813 816 818 821 822 825 826 828 830 830 832 833 834 835 835 837 837 838 839 840 841 842 843 843 844 845 846 847 848 849 849 850 851 851 852 853 854 854 855 855 856 857 857 858 859 859 860 860 861 861 863 865 866 862 859 860 861 860 860 861 860 859 858 859 858 857 857
770 780 790 795 796 792 786 788 787 785 788 791 790 788 795 801 799 795 795 799 802 802 802 801 800 799 801 804 806 810 814 816 818 819 821 823 825 827 829 830 832 832 834 834 835 836 837 838 839 840 841 842 843 843 845 846 847 848 848 849 850 851 851 852 852 853 854 854 855 855 856 857 857 858 858 859 860 860 860 861 861 863 865 863 859 858 860 860 859 860 860 859 858 858 857 857 857
772 781 788 789 785 780 772 775 777 777 784 787 788 788 792 797 797 795 800 807 804 806 807 804 805 805 804 805 808 812 813 816 818 818 820 822 824 826 827 829 831 832 833 834 835 836 837 838 839 840 841 842 843 844 845 846 847 848 849 850 850 851 851 852 853 853 854 854 855 855 856 857 857 858 858 859 859 859 860 859 860 861 863 864 860 857 858 860 859 859 859 859 858 858 857 857 857
769 776 786 781 773 773 768 769 772 773 776 784 789 787 791 793 792 794 801 808 807 806 807 805 809 808 806 807 808 812 814 816 818 819 820 821 823 825 826 828 829 831 833 834 835 836 837 838 839 840 841 842 843 844 846 846 847 848 849 850 850 851 851 852 853 853 854 854 855 855 856 856 857 858 858 858 858 859 859 859 859 860 861 863 862 859 858 858 859 858 858 859 859 858 858 857 857
767 771 778 771 766 773 769 766 769 770 773 781 787 789 793 791 790 795 799 808 809 803 800 801 805 805 805 806 808 811 813 816 817 819 820 821 823 824 826 827 829 831 832 834 835 836 837 838 839 840 842 842 843 844 845 846 847 848 849 849 850 851 851 852 853 853 854 854 855 855 856 856 857 857 857 858 858 858 858 859 859 859 860 861 861 860 859 858 858 858 858 858 858 858 857 857 856
767 767 766 764 765 770 765 763 767 769 773 780 787 789 790 789 791 794 796 803 803 795 793 794 798 801 802 804 807 810 812 815 816 818 820 821 823 824 826 827 829 831 832 833 834 836 837 838 839 840 841 842 843 844 845 846 847 848 848 849 850 851 851 852 853 853 854 854 855 855 856 856 856 857 857 857 858 858 858 858 858 858 859 859 859 859 859 858 858 858 858 857 857 857 856 856 855
768 767 760 762 762 765 763 763 766 768 774 782 785 784 783 790 794 792 792 796 792 786 787 791 794 798 800 803 806 809 811 813 815 817 819 820 822 823 825 826 828 829 831 832 833 835 836 837 839 839 841 842 843 844 845 846 847 847 848 849 850 850 851 852 852 853 853 854 854 855 855 855 856 856 856 857 857 857 857 857 858 858 858 859 858 858 858 858 858 857 857 857 856 856 856 855 855
767 768 762 761 760 761 761 761 764 766 772 776 778 780 784 791 794 791 793 792 787 785 786 789 794 797 800 803 805 807 810 811 813 816 818 820 822 823 824 826 827 829 830 831 833 834 835 837 838 839 840 841 842 843 844 845 846 847 847 848 849 850 851 851 852 852 853 853 854 854 854 855 855 855 856 856 856 856 856 857 857 857 857 858 858 858 857 857 857 856 856 856 856 856 855 855 854
766 766 761 761 760 759 758 760 764 766 770 773 777 784 786 787 789 792 794 791 787 785 787 790 794 797 800 803 805 807 809 811 813 816 818 820 822 824 825 825 826 827 828 830 831 833 834 835 836 838 839 840 841 842 844 844 845 846 847 848 848 849 850 850 851 851 852 852 853 853 854 854 854 855 855 855 856 856 856 856 856 856 856 857 857 857 857 856 856 856 856 856 856 855 855 855 854
762 762 761 761 761 758 759 762 765 768 770 773 782 789 788 785 788 795 793 790 789 787 789 792 795 799 800 802 804 806 808 811 813 815 817 819 821 823 823 824 825 826 827 829 830 832 833 834 835 837 838 839 841 842 843 844 844 845 846 847 848 848 849 850 850 851 851 852 852 852 853 853 854 854 854 855 855 855 855 856 855 856 856 856 856 856 856 856 856 855 855 855 855 854 854 854 853
756 759 760 760 761 759 760 765 767 769 772 774 783 792 789 785 790 798 793 788 789 789 793 794 796 800 800 802 803 805 807 809 811 814 816 818 819 821 821 823 824 825 826 827 829 830 831 833 834 836 837 838 840 841 842 843 844 844 845 846 847 847 848 849 849 850 850 851 851 852 852 852 853 854 854 854 855 855 855 855 855 855 855 855 855 855 855 855 855 855 855 855 854 854 854 853 853
755 757 763 764 762 763 763 767 769 771 777 776 780 791 792 790 794 794 790 788 789 791 795 796 797 800 800 802 803 805 806 807 810 812 813 815 816 818 819 820 821 823 824 826 827 829 830 831 833 835 836 837 838 840 841 842 843 843 844 845 846 847 847 848 849 849 849 850 850 851 851 852 852 853 853 854 854 854 854 854 854 854 854 854 854 854 854 855 855 854 854 854 854 853 853 853 852
755 754 767 773 768 772 771 769 769 771 780 776 779 798 801 797 795 789 787 789 790 793 797 797 798 800 801 802 803 805 805 807 809 809 811 812 814 815 816 818 819 821 823 824 826 827 829 830 832 833 834 836 837 838 840 840 842 842 843 844 845 846 846 847 848 848 848 849 849 850 851 851 851 852 852 853 853 853 853 853 853 853 854 854 853 853 853 854 854 853 853 853 853 853 853 852 852
759 757 767 777 780 783 775 771 771 773 780 771 779 804 804 794 791 787 786 788 792 797 798 798 799 799 801 802 803 804 804 805 806 807 809 810 812 813 814 816 818 820 821 823 824 826 828 829 830 832 833 834 835 837 838 839 840 841 842 843 844 845 845 846 846 847 847 848 848 849 849 850 850 851 851 852 852 852 852 852 852 852 853 853 852 852 852 852 853 852 852 852 852 852 852 851 851
764 767 769 776 786 788 776 772 775 780 782 770 780 802 796 789 789 787 786 786 791 797 797 798 799 799 800 801 802 803 803 804 805 806 808 809 811 812 813 815 816 818 820 821 822 824 826 827 829 830 831 833 834 835 836 837 839 840 841 842 842 844 844 845 845 846 847 847 848 848 848 849 849 850 850 851 851 851 851 851 851 851 851 851 851 851 851 851 852 851 851 851 851 851 851 851 850
767 777 783 780 781 787 781 775 774 781 784 774 785 801 793 786 787 785 785 786 790 795 796 796 797 798 799 800 801 803 802 803 804 805 806 808 809 810 812 813 815 816 818 819 821 823 825 826 827 828 829 831 832 834 835 836 837 838 839 840 841 842 843 844 844 845 846 846 847 847 847 848 848 849 849 849 849 850 850 850 850 850 850 850 850 850 850 850 851 851 850 850 850 851 850 850 850
773 777 787 784 781 789 787 779 773 775 783 781 786 795 792 787 784 783 784 785 789 793 795 796 796 797 797 799 800 801 802 802 803 803 804 806 807 808 810 811 813 814 816 818 819 821 823 824 826 827 828 830 831 832 834 835 836 837 838 839 840 841 842 842 843 844 844 845 846 846 846 847 847 847 848 848 848 848 849 849 849 849 849 850 850 850 849 850 850 850 850 850 850 850 850 849 849
781 778 782 782 781 787 789 785 776 773 782 786 786 789 789 787 784 783 783 784 788 791 793 794 795 796 796 797 798 799 801 801 800 800 801 803 805 807 808 810 811 813 815 816 818 819 821 823 824 826 827 828 830 831 832 834 835 836 837 838 839 840 840 841 842 843 843 844 844 845 845 846 846 846 846 847 847 847 848 848 848 848 848 849 849 849 849 849 849 849 849 849 849 849 849 848 847
780 781 781 784 782 782 786 785 777 774 782 785 789 791 787 785 785 784 783 783 787 789 789 791 792 794 795 796 797 797 798 798 796 797 799 801 803 805 806 808 810 811 813 814 816 817 819 821 822 824 825 827 828 829 831 832 833 835 836 837 838 838 839 840 840 841 842 843 843 844 844 845 845 845 845 846 846 846 847 847 847 847 848 848 848 848 848 848 848 848 848 848 848 848 847 847 846
769 771 773 779 782 782 779 777 771 773 784 786 786 789 784 786 787 785 784 783 786 788 787 789 790 792 793 795 795 795 796 795 793 795 797 799 801 803 804 806 808 809 811 813 814 816 817 819 821 822 823 825 827 828 829 831 832 833 834 835 836 836 837 838 839 840 841 842 842 843 843 844 844 844 844 844 845 845 846 846 846 846 847 847 848 848 848 848 848 848 848 847 847 847 846 846 845
763 768 771 771 776 780 775 774 770 769 784 788 782 785 784 785 787 784 783 784 787 788 788 789 789 790 792 792 793 793 793 791 791 794 796 797 799 801 803 804 806 808 809 811 812 813 815 816 818 819 821 823 824 825 827 828 830 831 832 833 833 834 836 837 838 839 839 840 841 842 842 843 843 843 843 844 844 844 845 845 845 846 846 847 847 847 847 847 846 847 846 846 846 846 846 845 845
762 768 773 773 774 777 772 772 770 767 782 788 783 788 788 785 787 784 783 786 785 784 785 787 787 788 789 789 791 790 790 789 790 793 793 795 797 798 801 802 804 805 806 808 809 811 813 814 816 817 819 821 822 823 824 826 827 828 829 830 831 833 834 835 836 837 838 839 840 840 841 842 842 842 843 843 843 843 844 844 845 845 846 846 846 846 846 845 846 846 846 845 845 845 845 844 844
761 765 772 777 774 775 776 772 769 770 781 787 785 790 788 784 785 783 781 781 779 777 778 781 782 786 787 787 788 787 788 790 789 790 791 792 794 796 798 799 801 803 804 805 807 809 810 812 813 815 816 818 819 821 822 823 825 826 828 829 830 832 833 834 835 836 837 838 838 839 840 840 841 841 842 842 842 843 843 844 844 845 845 845 845 845 845 845 845 845 845 845 845 844 844 844 844
761 763 770 776 773 776 781 777 772 771 778 783 786 790 787 784 785 783 779 777 777 776 776 777 778 780 781 780 781 783 786 788 788 787 787 789 791 793 795 796 798 800 802 803 805 806 808 809 810 812 814 815 817 818 820 822 823 825 827 828 829 831 832 833 834 835 836 837 837 838 839 839 840 840 841 841 842 842 843 843 844 844 844 844 844 845 844 845 844 844 844 844 844 844 844 844 843
762 761 764 769 770 770 772 774 775 775 780 780 785 796 790 782 786 783 777 777 777 777 777 778 777 775 776 777 777 779 780 782 784 784 784 785 787 789 791 793 795 797 799 800 801 803 804 805 807 809 811 813 815 816 818 820 822 824 826 828 829 829 831 831 832 833 834 835 836 836 837 838 838 839 839 840 841 841 842 843 843 843 844 844 844 844 844 844 844 844 844 844 844 844 843 844 843
765 760 756 758 762 765 768 774 778 788 794 780 784 807 799 779 781 780 775 778 778 776 777 777 776 774 775 777 776 776 775 776 778 779 780 781 783 786 788 790 792 794 795 796 798 800 801 803 805 807 809 810 812 814 816 818 820 822 824 825 827 828 829 830 831 832 833 834 834 835 836 836 837 838 838 839 840 841 842 842 843 843 844 844 844 844 844 844 843 843 843 843 844 844 844 844 843
767 757 750 753 756 762 770 773 778 791 794 776 775 800 799 781 778 775 772 777 777 775 776 774 773 773 772 773 772 772 772 772 773 775 776 778 780 782 784 786 788 789 791 793 795 797 799 801 802 804 806 808 810 812 814 816 818 820 821 822 824 825 827 828 829 830 831 832 833 834 834 835 836 837 837 839 839 840 841 842 842 843 843 844 844 844 843 843 843 843 843 843 843 843 843 843 843
762 748 746 755 757 763 768 770 775 778 780 778 775 785 796 789 776 770 770 776 778 776 774 770 768 768 767 767 766 766 767 767 769 771 772 773 775 777 779 781 783 785 787 790 792 794 796 798 800 802 804 805 807 809 811 813 815 817 819 820 822 823 825 826 827 829 830 831 832 833 833 834 835 836 837 838 839 840 841 841 842 842 843 843 843 843 843 843 843 843 843 843 843 843 843 843 843
753 744 746 751 753 758 760 764 771 772 779 793 786 783 801 796 774 770 772 775 779 774 767 765 762 761 761 761 761 760 761 762 763 766 767 768 770 772 774 776 779 782 785 787 788 790 792 795 797 799 801 803 805 807 809 810 812 814 816 818 820 821 823 825 826 827 829 830 831 832 832 833 834 835 836 837 838 839 840 840 841 841 842 842 843 843 843 842 842 842 843 843 843 843 843 843 843
746 745 748 751 754 757 760 765 770 778 789 795 787 784 799 793 770 772 780 778 774 764 757 756 754 755 755 755 756 755 757 758 759 760 761 763 765 767 770 773 776 779 781 783 785 788 790 792 794 796 798 800 802 804 806 808 810 812 814 815 817 819 821 823 824 825 827 828 829 830 831 832 833 833 834 836 837 838 839 839 840 840 841 841 842 842 842 842 842 842 842 842 842 842 842 842 843
741 745 752 759 765 764 769 771 772 791 800 788 779 777 787 789 769 764 771 763 753 750 750 749 748 750 750 749 750 750 752 754 755 757 757 759 761 764 767 770 772 775 777 780 782 784 787 788 791 793 795 797 800 802 804 806 808 809 811 812 814 816 818 820 822 823 824 826 827 828 829 830 831 832 833 834 835 836 837 838 838 839 840 840 841 841 841 841 842 842 842 842 842 842 842 842 842
739 746 753 766 777 775 781 785 784 802 805 781 771 772 783 792 769 751 750 740 735 740 741 741 743 743 743 742 743 744 746 749 751 754 754 756 759 762 765 767 769 772 774 776 778 781 783 785 787 790 792 794 796 799 801 803 805 806 808 810 812 813 815 817 818 820 821 823 825 826 827 828 829 830 831 832 833 835 835 836 837 838 838 839 840 840 840 841 841 841 841 841 841 841 841 841 842
741 746 754 771 790 793 798 801 798 803 796 777 774 776 785 786 759 741 742 735 731 731 727 729 732 734 736 735 736 738 740 743 746 749 751 752 755 757 760 763 765 768 770 772 775 777 779 781 784 786 788 791 793 796 798 800 802 804 805 807 809 811 813 814 816 817 819 821 823 824 825 826 827 828 829 831 832 833 834 834 835 836 837 838 838 839 839 839 840 840 840 840 841 840 841 841 841
744 746 753 770 789 802 810 811 807 803 788 776 776 779 786 780 752 735 734 727 722 722 722 724 725 728 730 729 731 734 735 738 740 743 745 748 749 752 755 758 760 763 765 768 771 773 776 778 781 783 785 787 790 792 795 797 799 801 803 805 806 808 810 812 814 815 817 819 820 822 823 824 825 826 828 829 830 831 832 833 834 835 835 836 837 837 838 838 839 839 839 840 840 840 840 840 841
741 736 741 756 767 782 797 800 799 795 785 782 785 783 781 771 748 729 723 719 715 717 718 719 722 723 724 725 729 731 733 734 736 738 740 742 744 747 750 752 755 757 761 764 767 770 772 774 776 778 781 784 786 789 791 793 795 798 800 801 803 805 807 809 811 813 815 817 818 820 821 822 824 825 826 827 829 830 831 832 833 834 835 835 836 836 836 837 837 838 838 839 839 839 839 840 840
741 733 741 751 746 752 772 780 777 777 782 788 788 778 761 748 735 721 719 719 715 714 714 716 720 719 721 725 726 727 729 730 732 734 736 737 739 743 745 748 750 753 756 760 763 765 767 769 772 774 777 780 782 785 787 790 792 794 796 798 800 802 804 806 809 811 813 815 817 818 819 821 823 824 825 827 828 829 830 831 832 833 834 834 835 835 835 836 836 837 837 838 838 838 839 839 839
741 743 746 742 732 737 762 779 776 776 783 783 779 770 754 746 738 721 718 721 715 714 715 714 715 717 720 722 721 722 724 725 727 728 729 731 733 737 740 743 746 749 752 755 757 759 761 764 767 770 774 776 779 781 783 786 788 790 792 794 797 799 802 804 806 809 811 813 815 817 819 820 821 823 824 825 827 828 829 830 831 832 832 833 834 834 835 835 835 836 836 837 837 837 838 838 838
736 744 736 733 736 739 751 773 784 786 786 779 774 769 757 758 750 725 720 725 717 712 712 711 714 716 718 716 715 717 717 718 720 721 723 725 727 730 733 737 740 743 747 749 751 754 757 761 764 767 770 773 774 777 779 782 784 787 789 791 794 797 799 803 805 807 810 812 814 816 818 819 820 821 823 824 825 826 827 828 829 830 831 832 833 833 834 834 834 835 835 836 836 836 837 837 837
723 726 718 727 749 754 756 768 779 786 788 779 774 770 758 755 747 727 722 721 713 708 708 710 713 713 713 711 711 712 713 714 716 717 719 721 722 725 728 732 736 739 742 744 747 751 755 758 761 764 766 768 771 774 776 779 781 783 785 788 791 794 797 800 803 806 808 811 813 814 816 817 818 819 820 821 823 824 825 826 827 828 829 830 832 832 833 834 834 834 834 835 835 835 836 836 836
719 719 718 724 735 743 749 752 756 768 779 777 775 775 761 744 733 725 720 713 707 706 704 705 707 706 706 706 706 708 708 709 710 712 714 715 717 720 723 727 730 733 737 741 745 749 752 755 757 760 763 765 768 771 773 775 778 780 782 785 789 792 795 798 800 804 807 809 811 813 814 815 816 817 818 819 820 822 823 824 826 827 828 829 830 831 832 832 833 833 833 834 834 834 834 834 834
725 727 730 731 730 732 738 741 742 749 763 771 773 771 753 729 718 717 713 706 703 702 699 698 697 696 698 698 699 701 702 703 704 706 707 709 712 714 718 723 726 730 734 737 742 746 748 751 753 756 759 762 765 767 769 772 774 776 780 783 787 790 793 796 799 803 806 808 810 811 812 814 815 815 816 817 819 820 821 823 824 825 826 827 828 829 830 831 831 832 832 833 833 833 833 833 832
716 722 725 726 727 733 744 751 747 742 748 756 760 761 741 714 706 707 703 700 696 693 694 694 691 690 692 693 694 695 697 699 700 700 702 704 706 710 714 719 724 727 731 735 739 742 745 748 750 752 756 758 761 763 765 767 770 773 776 780 785 789 792 796 800 804 806 808 810 810 811 813 814 815 816 817 818 819 820 821 823 824 824 825 826 826 828 829 829 830 831 831 831 831 831 831 831